Fecha, hora, temperatura, viento dirección y velocidad, humedad y presión.

  • 20-03-2019 00:00:00 | 11.00°C | Este |26.00 km/h | 74.00% | 1021.50 hPa
  • 19-03-2019 23:00:00 | 10.80°C | Este |31.00 km/h | 79.00% | 1021.20 hPa
  • 19-03-2019 22:00:00 | 11.00°C | Este |28.00 km/h | 79.00% | 1021.10 hPa
  • 19-03-2019 21:00:00 | 11.00°C | Este |32.00 km/h | 79.00% | 1021.00 hPa
  • 19-03-2019 20:00:00 | 11.00°C | Nordeste |23.00 km/h | 78.00% | 1021.00 hPa
  • 19-03-2019 19:00:00 | 11.10°C | Este |23.00 km/h | 74.00% | 1020.40 hPa
  • 19-03-2019 18:00:00 | 11.90°C | Este |20.00 km/h | 72.00% | 1020.20 hPa
  • 19-03-2019 17:00:00 | 12.30°C | Este |17.00 km/h | 70.00% | 1020.00 hPa
  • 19-03-2019 16:00:00 | 13.00°C | Este |20.00 km/h | 69.00% | 1020.20 hPa
  • 19-03-2019 15:00:00 | 11.90°C | Este |14.00 km/h | 69.00% | 1020.20 hPa
  • 19-03-2019 14:00:00 | 12.90°C | Este |17.00 km/h | 70.00% | 1020.70 hPa
  • 19-03-2019 13:00:00 | 12.10°C | Nordeste |13.00 km/h | 68.00% | 1020.80 hPa
  • 19-03-2019 12:00:00 | 13.60°C | Este |16.00 km/h | 67.00% | 1020.80 hPa
  • 19-03-2019 11:00:00 | 11.20°C | Nordeste |19.00 km/h | 70.00% | 1020.60 hPa
  • 19-03-2019 10:00:00 | 11.10°C | Nordeste |14.00 km/h | 70.00% | 1020.60 hPa
  • 19-03-2019 09:00:00 | 10.80°C | Nordeste |15.00 km/h | 68.00% | 1020.20 hPa
  • 19-03-2019 08:00:00 | 10.50°C | Nordeste |17.00 km/h | 69.00% | 1019.50 hPa
  • 19-03-2019 07:00:00 | 10.30°C | Nordeste |15.00 km/h | 70.00% | 1019.20 hPa
  • 19-03-2019 06:00:00 | 10.30°C | Nordeste |15.00 km/h | 69.00% | 1019.00 hPa
  • 19-03-2019 05:00:00 | 10.50°C | Nordeste |16.00 km/h | 71.00% | 1019.10 hPa
  • 19-03-2019 04:00:00 | 10.20°C | Nordeste |9.00 km/h | 71.00% | 1019.10 hPa
  • 19-03-2019 03:00:00 | 10.10°C | Nordeste |12.00 km/h | 70.00% | 1019.70 hPa
  • 19-03-2019 02:00:00 | 10.00°C | Nordeste |13.00 km/h | 69.00% | 1020.10 hPa
  • 19-03-2019 01:00:00 | 10.00°C | Nordeste |13.00 km/h | 69.00% | 1020.30 hPa
    • diseño web asturias Información sobre el estado de las mareas, altura de la marejada, temperatura del agua y otros datos de Gijón en Asturias.

      Surf Gijón